^^
Station Historical Data
 
Daily Summary for August 17, 2018 Units:  Metric    English   Both
« Previous Day
Next Day »
Daily Weekly Monthly Yearly Custom
  Current: High: Low: Average:
Temperature: 15.6 °C -17.8 °C 15.6 °C 15.8 °C
Dew Point: 13.6 °C -17.8 °C 13.6 °C 13.3 °C
Humidity: 88% Humidity% 80% 82%
Wind Speed: 1.6km/h 0km/h 0km/h 0.8km/h
Wind Gust: 3.2km/h 0km/h - -
WindSW - - SSW
Pressure: 1014.1 hPa 0 hPa 1013.8 hPa -
Precipitation: 0 mm      
Historical Graphs
 
 
Tabular Data for August 17, 2018
Time Temperature Dew Point Pressure Wind Wind Speed Wind Gust Humidity Rainfall Rate (Hourly) solar Conditions
-17.8 °C -17.8 °C 0 hPa Calm     Humidity% 0 mm SoftwareType W/m2 Conditions
00:00 18.9 °C 15.4 °C 1013.8 hPa SW 1.6 km/h 3.2 km/h 80% 0 mm WeatherDisplay:10.37 W/m2 CLR
00:10 18.7 °C 15.4 °C 1013.8 hPa SW 1.6 km/h 3.2 km/h 81% 0 mm WeatherDisplay:10.37 W/m2 CLR
00:20 18.5 °C 15.2 °C 1013.8 hPa SW 1.6 km/h 3.2 km/h 81% 0 mm WeatherDisplay:10.37 W/m2 CLR
00:40 18.1 °C 14.8 °C 1013.8 hPa Calm   3.2 km/h 81% 0 mm WeatherDisplay:10.37 W/m2 CLR
00:50 18 °C 14.7 °C 1013.8 hPa SSW 3.2 km/h 4.8 km/h 81% 0 mm WeatherDisplay:10.37 W/m2 CLR
01:00 17.9 °C 14.8 °C 1013.8 hPa WSW 1.6 km/h 4.8 km/h 82% 0 mm WeatherDisplay:10.37 W/m2 CLR
01:10 17.8 °C 14.7 °C 1013.8 hPa WSW 3.2 km/h 6.4 km/h 82% 0 mm WeatherDisplay:10.37 W/m2 CLR
01:20 17.7 °C 14.6 °C 1013.8 hPa Calm   4.8 km/h 82% 0 mm WeatherDisplay:10.37 W/m2 CLR
01:30 17.5 °C 14.4 °C 1013.8 hPa Calm   3.2 km/h 82% 0 mm WeatherDisplay:10.37 W/m2 CLR
01:40 17.4 °C 14.3 °C 1013.8 hPa Calm   3.2 km/h 82% 0 mm WeatherDisplay:10.37 W/m2 CLR
01:50 17.3 °C 14.2 °C 1013.8 hPa Calm   1.6 km/h 82% 0 mm WeatherDisplay:10.37 W/m2 CLR
02:00 17.2 °C 14.8 °C 1013.8 hPa SSW 1.6 km/h 3.2 km/h 86% 0 mm WeatherDisplay:10.37 W/m2 CLR
02:10 17.1 °C 14.7 °C 1013.8 hPa SW 1.6 km/h 3.2 km/h 86% 0 mm WeatherDisplay:10.37 W/m2 CLR
02:20 16.9 °C 14.6 °C 1013.8 hPa Calm   3.2 km/h 86% 0 mm WeatherDisplay:10.37 W/m2 CLR
02:30 16.9 °C 14.6 °C 1014.1 hPa Calm   3.2 km/h 86% 0 mm WeatherDisplay:10.37 W/m2 CLR
02:40 16.8 °C 14.4 °C 1014.1 hPa Calm   3.2 km/h 86% 0 mm WeatherDisplay:10.37 W/m2 CLR
02:50 16.8 °C 14.4 °C 1013.8 hPa Calm   3.2 km/h 86% 0 mm WeatherDisplay:10.37 W/m2 CLR
03:00 16.7 °C 14.3 °C 1013.8 hPa Calm   3.2 km/h 86% 0 mm WeatherDisplay:10.37 W/m2 CLR
03:10 16.6 °C 14.2 °C 1013.8 hPa WSW 1.6 km/h 3.2 km/h 86% 0 mm WeatherDisplay:10.37 W/m2 CLR
03:20 16.5 °C 14.3 °C 1014.1 hPa Calm   3.2 km/h 87% 0 mm WeatherDisplay:10.37 W/m2 CLR
03:30 16.4 °C 14.2 °C 1014.1 hPa Calm     87% 0 mm WeatherDisplay:10.37 W/m2 CLR
03:40 16.3 °C 14.1 °C 1014.1 hPa SSW 1.6 km/h 3.2 km/h 87% 0 mm WeatherDisplay:10.37 W/m2 CLR
03:50 16.1 °C 13.9 °C 1014.1 hPa Calm   3.2 km/h 87% 0 mm WeatherDisplay:10.37 W/m2 CLR
04:00 16.1 °C 13.9 °C 1014.1 hPa Calm   3.2 km/h 87% 0 mm WeatherDisplay:10.37 W/m2 CLR
04:10 16 °C 13.8 °C 1013.8 hPa SSW 1.6 km/h 3.2 km/h 87% 0 mm WeatherDisplay:10.37 W/m2 CLR
04:20 15.8 °C 13.8 °C 1013.8 hPa SW 1.6 km/h 4.8 km/h 88% 0 mm WeatherDisplay:10.37 W/m2 CLR
04:30 15.7 °C 13.8 °C 1014.1 hPa North 1.6 km/h 3.2 km/h 88% 0 mm WeatherDisplay:10.37 W/m2 CLR
04:40 15.7 °C 13.7 °C 1013.8 hPa Calm   3.2 km/h 88% 0 mm WeatherDisplay:10.37 W/m2 CLR
04:50 15.6 °C 13.6 °C 1014.1 hPa SW 1.6 km/h 3.2 km/h 88% 0 mm WeatherDisplay:10.37 W/m2 CLR
Knjazevac Weather
Compliments of Weather Underground - 2 mb